DLH68L LSZH-EDDF

Flight info

Callsign DLH68L
Flight time N/A
Altitude 20000
Route DEGES Z1 SUDEN T164 KOVAN T163 SPESA SPESA4B
Aircraft A321/M-SDE3FGHIRWY/LB1

Departure

Time 2026-02-17 15:15
Airport Zürich Airport (LSZH)

Arrival

Time N/A
Airport Frankfurt Main Airport (EDDF)
Time Latitude Longitude Altitude Speed Heading
2026-02-17 14:55 47.45432 8.55635 1406 ft 0 kts 187°
2026-02-17 15:03 47.45447 8.55637 1414 ft 3 kts 187°
2026-02-17 15:03 47.45467 8.55641 1409 ft 3 kts 187°
2026-02-17 15:03 47.45487 8.55644 1413 ft 3 kts 179°
2026-02-17 15:03 47.45506 8.55641 1412 ft 3 kts 153°
2026-02-17 15:04 47.45517 8.55630 1416 ft 2 kts 101°
2026-02-17 15:04 47.45519 8.55614 1417 ft 3 kts 96°
2026-02-17 15:04 47.45520 8.55590 1414 ft 1 kts 96°
2026-02-17 15:04 47.45520 8.55588 1413 ft 0 kts 96°
2026-02-17 15:07 47.45517 8.55631 1416 ft 11 kts 95°
2026-02-17 15:08 47.45510 8.55767 1410 ft 14 kts 91°
2026-02-17 15:08 47.45572 8.55845 1409 ft 13 kts
2026-02-17 15:08 47.45633 8.55876 1419 ft 4 kts 61°
2026-02-17 15:08 47.45634 8.55933 1413 ft 10 kts 94°
2026-02-17 15:09 47.45622 8.56091 1413 ft 20 kts 96°
2026-02-17 15:09 47.45616 8.56165 1417 ft 6 kts 96°
2026-02-17 15:09 47.45615 8.56230 1414 ft 6 kts 79°
2026-02-17 15:09 47.45624 8.56250 1418 ft 0 kts 49°
2026-02-17 15:12 47.45625 8.56251 1418 ft 2 kts 47°
2026-02-17 15:12 47.45701 8.56276 1419 ft 17 kts
2026-02-17 15:13 47.45818 8.56293 1422 ft 17 kts
2026-02-17 15:13 47.45943 8.56313 1416 ft 19 kts
2026-02-17 15:13 47.46040 8.56330 1418 ft 18 kts
2026-02-17 15:13 47.46209 8.56330 1415 ft 18 kts 330°
2026-02-17 15:14 47.46288 8.56220 1411 ft 33 kts 317°
2026-02-17 15:14 47.46641 8.55742 1413 ft 102 kts 317°
2026-02-17 15:14 47.47310 8.54838 1420 ft 155 kts 313°
2026-02-17 15:15 47.48872 8.52798 2796 ft 154 kts 313°
2026-02-17 15:15 47.49743 8.51716 3046 ft 175 kts 321°
2026-02-17 15:15 47.50839 8.50726 3360 ft 194 kts 324°
2026-02-17 15:15 47.52019 8.49688 3983 ft 197 kts 317°
2026-02-17 15:16 47.52939 8.48241 4800 ft 192 kts 299°
2026-02-17 15:16 47.53446 8.46440 5698 ft 190 kts 282°
2026-02-17 15:16 47.53494 8.44485 6429 ft 192 kts 264°
2026-02-17 15:16 47.52974 8.42558 6778 ft 220 kts 237°
2026-02-17 15:17 47.51577 8.41271 7037 ft 262 kts 199°
2026-02-17 15:17 47.49680 8.41490 7629 ft 291 kts 164°
2026-02-17 15:17 47.48014 8.43308 8317 ft 310 kts 130°
2026-02-17 15:17 47.47139 8.46243 9007 ft 318 kts 99°
2026-02-17 15:18 47.47029 8.49512 9749 ft 321 kts 86°
2026-02-17 15:18 47.47130 8.52833 10231 ft 334 kts 85°
2026-02-17 15:18 47.47245 8.56390 10366 ft 356 kts 85°
2026-02-17 15:19 47.47202 8.64148 10631 ft 399 kts 95°
2026-02-17 15:19 47.46832 8.68269 10977 ft 410 kts 98°
2026-02-17 15:19 47.46340 8.72447 11525 ft 414 kts 100°
2026-02-17 15:19 47.45808 8.76652 11867 ft 418 kts 100°
2026-02-17 15:20 47.45290 8.80876 11945 ft 418 kts 99°
2026-02-17 15:20 47.44807 8.85121 11951 ft 418 kts 98°
2026-02-17 15:20 47.44359 8.89381 12304 ft 421 kts 98°
2026-02-17 15:20 47.43928 8.93674 12955 ft 424 kts 97°
2026-02-17 15:21 47.43503 8.97994 13547 ft 427 kts 97°
2026-02-17 15:21 47.43073 9.02354 14095 ft 431 kts 96°
2026-02-17 15:21 47.42633 9.06751 14614 ft 434 kts 96°
2026-02-17 15:21 47.42190 9.11174 15113 ft 437 kts 95°
2026-02-17 15:22 47.42034 9.15645 15614 ft 436 kts 84°
2026-02-17 15:22 47.42369 9.20075 16122 ft 433 kts 73°
2026-02-17 15:22 47.43176 9.24340 16629 ft 429 kts 63°
2026-02-17 15:23 47.45878 9.32095 17697 ft 424 kts 52°
2026-02-17 15:23 47.47572 9.35615 18214 ft 417 kts 42°
2026-02-17 15:23 47.49593 9.38624 18654 ft 410 kts 32°
2026-02-17 15:23 47.51880 9.41065 19087 ft 402 kts 22°
2026-02-17 15:24 47.54354 9.42910 19525 ft 395 kts 14°
2026-02-17 15:24 47.56941 9.44235 19850 ft 390 kts
2026-02-17 15:24 47.59572 9.45069 19918 ft 389 kts
2026-02-17 15:24 47.62292 9.45330 19926 ft 394 kts 355°
2026-02-17 15:25 47.65039 9.45455 19924 ft 396 kts 355°
2026-02-17 15:25 47.67802 9.45595 19925 ft 397 kts 355°
2026-02-17 15:25 47.70564 9.45747 19920 ft 398 kts 355°
2026-02-17 15:25 47.73328 9.45905 19914 ft 398 kts 355°
2026-02-17 15:26 47.76103 9.46063 19923 ft 398 kts 355°
2026-02-17 15:26 47.78874 9.46219 19926 ft 398 kts 355°
2026-02-17 15:26 47.81645 9.46347 19919 ft 397 kts 354°
2026-02-17 15:27 47.87160 9.46366 19920 ft 396 kts 353°
2026-02-17 15:27 47.89914 9.46321 19916 ft 395 kts 353°
2026-02-17 15:27 47.92667 9.46276 19916 ft 396 kts 353°
2026-02-17 15:27 47.95418 9.46244 19909 ft 396 kts 353°
2026-02-17 15:28 47.98172 9.46224 19905 ft 396 kts 353°
2026-02-17 15:28 48.00893 9.46215 19910 ft 396 kts 353°
2026-02-17 15:28 48.03646 9.46215 19901 ft 396 kts 354°
2026-02-17 15:28 48.06409 9.46218 19896 ft 396 kts 354°
2026-02-17 15:29 48.09164 9.46217 19894 ft 396 kts 354°
2026-02-17 15:29 48.11922 9.46214 19889 ft 396 kts 354°
2026-02-17 15:29 48.14681 9.46206 19888 ft 396 kts 353°
2026-02-17 15:29 48.17434 9.46147 19888 ft 396 kts 352°
2026-02-17 15:30 48.20184 9.46002 19890 ft 395 kts 352°
2026-02-17 15:30 48.22926 9.45807 19891 ft 395 kts 351°
2026-02-17 15:30 48.25665 9.45592 19892 ft 395 kts 351°
2026-02-17 15:31 48.31153 9.45179 19887 ft 395 kts 352°
2026-02-17 15:31 48.33891 9.44993 19887 ft 394 kts 352°
2026-02-17 15:31 48.36636 9.44814 19888 ft 395 kts 352°
2026-02-17 15:31 48.39381 9.44638 19890 ft 395 kts 352°
2026-02-17 15:32 48.42125 9.44460 19880 ft 395 kts 352°
2026-02-17 15:32 48.44877 9.44279 19886 ft 396 kts 352°
2026-02-17 15:32 48.47632 9.44102 19888 ft 396 kts 352°
2026-02-17 15:32 48.50354 9.43929 19885 ft 397 kts 352°
2026-02-17 15:33 48.53110 9.43757 19877 ft 396 kts 352°
2026-02-17 15:33 48.55862 9.43584 19873 ft 396 kts 352°
2026-02-17 15:33 48.58614 9.43407 19874 ft 396 kts 352°
2026-02-17 15:33 48.61361 9.43228 19877 ft 396 kts 352°